Warrensburg, MO

12:47 AM CDT on August 19, 2017 (GMT -0500)
Skyhaven

Weather History for KRCM - December, 2013

Change the Weather History Date:

Thursday, December 5, 2013

  Actual Average (KSZL) Record (KSZL)
Temperature  
Mean Temperature 22 °F -  
Max Temperature 26 °F 45 °F 73 °F (2001)
Min Temperature 19 °F 29 °F 8 °F (2005)
Degree Days  
Heating Degree Days 42    
Moisture  
Dew Point 10 °F    
Average Humidity 62    
Maximum Humidity 74    
Minimum Humidity 58    
Precipitation  
Precipitation 0.00 in - - ()
Sea Level Pressure  
Sea Level Pressure 30.24 in    
Wind  
Wind Speed 12 mph (NW)    
Max Wind Speed 17 mph    
Max Gust Speed 25 mph    
Visibility 10 miles    
Events      
Averages and records for this station are not official NWS values.
T = Trace of Precipitation, MM = Missing Value Source: NWS Daily Summary

Daily Weather History Graph

Daily Weather History Graph

Search for Another Location

Airport or City:

Trip Planner

Search our weather history database for the weather conditions in past years. The results will help you decide how hot, cold, wet, or windy it might be!

Date:

Astronomy

Dec. 05, 2013 Rise Set
Actual Time 7:18 AM CST 4:53 PM CST
Civil Twilight 6:48 AM CST 5:22 PM CST
Nautical Twilight 6:15 AM CST 5:56 PM CST
Astronomical Twilight 5:43 AM CST 6:28 PM CST
Moon 9:40 AM CST (12/5) 8:13 PM CST (12/5)
Length of Visible Light 10h 34m
Length of Day
9h 34m
Waxing Crescent, 11% of the Moon is Illuminated
Dec 5
Waxing Crescent
Dec 9
First Quarter
Dec 17
Full
Dec 25
Last Quarter
Jan 1
New

Hourly Weather History & Observations

Time (CST) Temp. Windchill Dew Point Humidity Pressure Visibility Wind Dir Wind Speed Gust Speed Precip Events Conditions
12:15 AM 26.6 °F 14.7 °F 17.6 °F 69% 30.03 in 10.0 mi WNW 15.0 mph 19.6 mph N/A   Scattered Clouds
12:35 AM 26.6 °F 16.8 °F 15.8 °F 64% 30.04 in 10.0 mi WNW 10.4 mph 19.6 mph N/A   Clear
12:55 AM 26.6 °F 15.7 °F 15.8 °F 64% 30.04 in 10.0 mi WNW 12.7 mph - N/A   Clear
1:15 AM 24.8 °F 13.4 °F 15.8 °F 69% 30.05 in 10.0 mi WNW 12.7 mph 18.4 mph N/A   Clear
1:35 AM 24.8 °F 12.4 °F 12.2 °F 59% 30.07 in 10.0 mi WNW 15.0 mph 24.2 mph N/A   Clear
1:55 AM 23.0 °F 11.1 °F 12.2 °F 63% 30.08 in 10.0 mi WNW 12.7 mph 19.6 mph N/A   Mostly Cloudy
2:15 AM 23.0 °F 9.2 °F 12.2 °F 63% 30.10 in 10.0 mi WNW 17.3 mph 25.3 mph N/A   Overcast
2:35 AM 23.0 °F 11.1 °F 12.2 °F 63% 30.10 in 10.0 mi WNW 12.7 mph 17.3 mph N/A   Overcast
2:55 AM 23.0 °F 11.1 °F 12.2 °F 63% 30.11 in 10.0 mi WNW 12.7 mph 17.3 mph N/A   Overcast
3:15 AM 23.0 °F 10.1 °F 12.2 °F 63% 30.12 in 10.0 mi NW 15.0 mph 21.9 mph N/A   Overcast
3:35 AM 23.0 °F 11.1 °F 14.0 °F 68% 30.14 in 10.0 mi WNW 12.7 mph 20.7 mph N/A   Overcast
3:55 AM 21.2 °F 7.8 °F 14.0 °F 74% 30.14 in 10.0 mi WNW 15.0 mph 20.7 mph N/A   Overcast
4:15 AM 21.2 °F 8.9 °F 14.0 °F 74% 30.15 in 10.0 mi WNW 12.7 mph 18.4 mph N/A   Mostly Cloudy
4:35 AM 21.2 °F 9.5 °F 14.0 °F 74% 30.15 in 10.0 mi WNW 11.5 mph - N/A   Scattered Clouds
4:55 AM 21.2 °F 8.9 °F 14.0 °F 74% 30.17 in 10.0 mi WNW 12.7 mph 18.4 mph N/A   Scattered Clouds
5:15 AM 21.2 °F 9.5 °F 12.2 °F 68% 30.17 in 10.0 mi WNW 11.5 mph 17.3 mph N/A   Scattered Clouds
5:35 AM 21.2 °F 9.5 °F 12.2 °F 68% 30.17 in 10.0 mi NW 11.5 mph 18.4 mph N/A   Scattered Clouds
5:55 AM 21.2 °F 9.5 °F 12.2 °F 68% 30.18 in 10.0 mi NW 11.5 mph 17.3 mph N/A   Scattered Clouds
6:15 AM 21.2 °F 9.5 °F 12.2 °F 68% 30.19 in 10.0 mi NW 11.5 mph - N/A   Clear
6:35 AM 21.2 °F 9.5 °F 12.2 °F 68% 30.20 in 10.0 mi NW 11.5 mph 17.3 mph N/A   Clear
6:55 AM 21.2 °F 10.1 °F 10.4 °F 63% 30.21 in 10.0 mi NW 10.4 mph - N/A   Clear
7:15 AM 19.4 °F 7.2 °F 10.4 °F 68% 30.20 in 10.0 mi NW 11.5 mph 16.1 mph N/A   Clear
7:35 AM 19.4 °F 10.4 °F 10.4 °F 68% 30.22 in 10.0 mi NW 6.9 mph - N/A   Clear
7:55 AM 21.2 °F 10.9 °F 10.4 °F 63% 30.24 in 10.0 mi NW 9.2 mph - N/A   Clear
8:15 AM 21.2 °F 10.1 °F 10.4 °F 63% 30.24 in 10.0 mi NW 10.4 mph 17.3 mph N/A   Clear
8:35 AM 19.4 °F 6.6 °F 10.4 °F 68% 30.24 in 10.0 mi NW 12.7 mph 19.6 mph N/A   Clear
8:55 AM 19.4 °F 5.0 °F 8.6 °F 63% 30.24 in 10.0 mi NW 16.1 mph 21.9 mph N/A   Clear
9:15 AM 21.2 °F 9.5 °F 10.4 °F 63% 30.23 in 10.0 mi NW 11.5 mph - N/A   Mostly Cloudy
9:35 AM 19.4 °F 7.9 °F 8.6 °F 63% 30.26 in 10.0 mi NW 10.4 mph - N/A   Overcast
9:55 AM 21.2 °F 9.5 °F 8.6 °F 58% 30.25 in 10.0 mi NW 11.5 mph 16.1 mph N/A   Scattered Clouds
10:15 AM 21.2 °F 8.3 °F 8.6 °F 58% 30.25 in 10.0 mi NNW 13.8 mph - N/A   Scattered Clouds
10:35 AM 21.2 °F 10.1 °F 8.6 °F 58% 30.27 in 10.0 mi NW 10.4 mph - N/A   Clear
10:55 AM 21.2 °F 10.9 °F 8.6 °F 58% 30.27 in 10.0 mi NNW 9.2 mph - N/A   Clear
11:15 AM 21.2 °F 10.9 °F 8.6 °F 58% 30.28 in 10.0 mi NW 9.2 mph - N/A   Clear
11:35 AM 21.2 °F 10.9 °F 8.6 °F 58% 30.27 in 10.0 mi NW 9.2 mph - N/A   Clear
11:55 AM 21.2 °F 8.3 °F 8.6 °F 58% 30.25 in 10.0 mi NW 13.8 mph - N/A   Clear
12:15 PM 21.2 °F 10.1 °F 8.6 °F 58% 30.26 in 10.0 mi NNW 10.4 mph - N/A   Clear
12:35 PM 21.2 °F 9.5 °F 8.6 °F 58% 30.28 in 10.0 mi NW 11.5 mph - N/A   Clear
12:55 PM 21.2 °F 10.1 °F 8.6 °F 58% 30.25 in 10.0 mi NW 10.4 mph - N/A   Clear
1:15 PM 21.2 °F 10.9 °F 8.6 °F 58% 30.25 in 10.0 mi NW 9.2 mph - N/A   Clear
1:35 PM 21.2 °F 10.1 °F 8.6 °F 58% 30.23 in 10.0 mi NNW 10.4 mph - N/A   Clear
1:55 PM 21.2 °F 10.1 °F 8.6 °F 58% 30.23 in 10.0 mi North 10.4 mph 16.1 mph N/A   Clear
2:15 PM 21.2 °F 10.1 °F 8.6 °F 58% 30.23 in 10.0 mi NNW 10.4 mph - N/A   Clear
2:35 PM 21.2 °F 8.9 °F 8.6 °F 58% 30.25 in 10.0 mi NNW 12.7 mph - N/A   Mostly Cloudy
2:55 PM 21.2 °F 10.1 °F 8.6 °F 58% 30.25 in 10.0 mi NNW 10.4 mph - N/A   Overcast
3:35 PM 21.2 °F 12.6 °F 8.6 °F 58% 30.27 in 10.0 mi NW 6.9 mph - N/A   Overcast
3:55 PM 21.2 °F 10.9 °F 8.6 °F 58% 30.27 in 10.0 mi North 9.2 mph - N/A   Overcast
4:15 PM 21.2 °F 12.6 °F 8.6 °F 58% 30.27 in 10.0 mi NNW 6.9 mph - N/A   Overcast
4:35 PM 21.2 °F 10.9 °F 8.6 °F 58% 30.28 in 10.0 mi NNW 9.2 mph - N/A   Overcast
4:55 PM 21.2 °F 11.7 °F 8.6 °F 58% 30.29 in 10.0 mi NNW 8.1 mph - N/A   Overcast
5:15 PM 21.2 °F 10.9 °F 8.6 °F 58% 30.30 in 10.0 mi North 9.2 mph - N/A   Overcast
5:35 PM 21.2 °F 10.9 °F 8.6 °F 58% 30.30 in 10.0 mi North 9.2 mph - N/A   Overcast
5:55 PM 21.2 °F 10.9 °F 8.6 °F 58% 30.30 in 10.0 mi NNW 9.2 mph - N/A   Overcast
6:15 PM 21.2 °F 10.9 °F 8.6 °F 58% 30.31 in 10.0 mi NNW 9.2 mph - N/A   Overcast
6:35 PM 21.2 °F 11.7 °F 8.6 °F 58% 30.30 in 10.0 mi NNW 8.1 mph - N/A   Overcast
6:55 PM 21.2 °F 12.6 °F 8.6 °F 58% 30.30 in 10.0 mi NNW 6.9 mph - N/A   Scattered Clouds
7:15 PM 21.2 °F 12.6 °F 8.6 °F 58% 30.31 in 10.0 mi NNW 6.9 mph - N/A   Scattered Clouds
7:35 PM 21.2 °F 12.6 °F 8.6 °F 58% 30.33 in 10.0 mi NNW 6.9 mph - N/A   Overcast
7:55 PM 21.2 °F 11.7 °F 8.6 °F 58% 30.34 in 10.0 mi North 8.1 mph - N/A   Overcast
8:15 PM 21.2 °F 11.7 °F 8.6 °F 58% 30.33 in 10.0 mi North 8.1 mph - N/A   Overcast
8:35 PM 21.2 °F 11.7 °F 8.6 °F 58% 30.34 in 10.0 mi North 8.1 mph - N/A   Overcast
8:55 PM 21.2 °F 9.5 °F 8.6 °F 58% 30.33 in 10.0 mi NNW 11.5 mph - N/A   Overcast
9:15 PM 21.2 °F 10.9 °F 8.6 °F 58% 30.33 in 10.0 mi NNW 9.2 mph - N/A   Overcast
9:35 PM 21.2 °F 8.9 °F 8.6 °F 58% 30.34 in 10.0 mi NNW 12.7 mph 16.1 mph N/A   Overcast
9:55 PM 19.4 °F 8.6 °F 8.6 °F 63% 30.33 in 10.0 mi North 9.2 mph - N/A   Overcast
10:15 PM 19.4 °F 8.6 °F 8.6 °F 63% 30.34 in 10.0 mi NNW 9.2 mph - N/A   Overcast
10:35 PM 19.4 °F 7.2 °F 8.6 °F 63% 30.35 in 10.0 mi North 11.5 mph 16.1 mph N/A   Overcast
10:55 PM 19.4 °F 6.6 °F 8.6 °F 63% 30.36 in 10.0 mi NNW 12.7 mph - N/A   Overcast
11:15 PM 19.4 °F 6.6 °F 8.6 °F 63% 30.37 in 10.0 mi NNW 12.7 mph - N/A   Overcast
11:35 PM 19.4 °F 7.9 °F 8.6 °F 63% 30.36 in 10.0 mi NNW 10.4 mph 18.4 mph N/A   Overcast
11:55 PM 19.4 °F 7.2 °F 6.8 °F 58% 30.37 in 10.0 mi NNW 11.5 mph - N/A   Overcast